Location: Newark
(46.2031°N, 3.4731°E)
Time: 08:17:02
(UTC+00:00)

Envisat - Pass Details

Date: 24 September 2019
Orbit: 764 x 766 km, 98.1° (Epoch: 15 October)

Event Time Altitude Azimuth Distance (km) Brightness Sun altitude
Rises 18:34:20 0° 189° (S) 3,219 6.2 -10.1°
Reaches altitude 10° 18:36:49 10° 199° (SSW) 2,298 5.6 -10.5°
Maximum altitude 18:41:25 35° 264° (W) 1,235 4.8 -11.3°
Drops below altitude 10° 18:46:03 10° 330° (NNW) 2,313 6.1 -12.1°
Sets 18:48:34 0° 339° (NNW) 3,244 6.7 -12.5°
